Wind_Speed
40 39 39 39 38 38 37 37 37 37 36 35 33 33 33 32 32 32 32 31 31 31 31 31 31 32 31 31 31 31 30 31 31 31 31 31 31 31 32 32 32 32 32
40 40 40 40 40 40 40 39 38 38 38 38 37 36 35 34 34 34 34 33 33 33 33 33 33 33 33 33 33 33 32 32 32 32 32 32 32 32 33 33 33 33 34
41 41 41 41 41 41 41 41 40 39 39 39 39 38 37 36 36 36 35 35 35 34 34 33 34 34 34 34 34 34 34 34 34 34 33 33 34 34 34 34 34 35 35
41 41 42 42 42 42 42 42 42 41 41 41 41 41 40 38 37 36 35 35 35 35 35 35 35 35 34 34 34 35 35 35 36 35 35 35 36 36 36 36 36 37 37
42 42 42 42 42 42 43 43 43 42 42 42 43 42 42 41 39 38 37 36 36 36 36 36 36 36 36 35 35 35 35 36 37 37 37 37 37 37 37 38 38 38 38
43 43 43 43 43 43 44 44 44 44 44 43 43 44 43 43 41 40 39 39 37 37 37 38 38 37 36 36 37 37 37 37 37 37 38 37 38 39 39 39 39 40 40
42 43 43 43 44 44 45 45 45 44 44 44 44 43 43 43 41 40 40 39 39 39 39 39 39 39 39 39 39 39 39 39 39 39 39 39 39 39 39 40 41 41 42
43 43 43 43 43 44 45 45 46 45 45 45 44 44 44 44 42 41 41 41 41 41 40 41 42 42 41 41 41 41 41 40 40 40 39 39 40 40 40 41 41 42 42
43 43 43 42 42 43 44 45 45 45 45 45 44 44 44 43 44 43 42 42 43 43 42 42 42 43 42 42 42 41 41 41 41 41 41 41 40 41 41 42 43 43 43
43 43 42 42 43 44 44 44 44 44 44 44 44 44 44 45 45 44 43 43 43 43 43 42 42 43 43 42 42 42 41 41 42 42 41 41 41 42 42 43 42 42 43
42 43 43 43 43 43 43 43 44 44 43 43 44 44 44 45 46 46 44 43 44 44 44 43 43 43 42 43 43 42 42 42 42 42 41 41 42 42 42 42 43 43 43
42 42 43 43 43 43 42 43 43 44 44 43 43 44 44 44 44 45 45 45 44 43 44 44 44 43 42 43 43 43 43 43 43 43 43 43 43 44 44 43 43 43 43
41 40 41 42 42 42 42 42 43 44 44 44 44 43 43 43 44 44 44 44 44 43 43 44 44 44 43 42 42 43 43 44 44 44 44 44 43 44 43 43 44 44 44
40 40 40 40 42 42 42 42 42 43 43 43 44 44 44 44 44 44 44 44 44 43 43 42 42 44 43 43 43 43 43 43 43 44 44 44 44 44 44 43 43 44 45
40 40 41 41 41 42 41 42 42 43 42 43 44 45 45 46 46 46 45 44 44 44 44 43 43 43 44 45 45 45 45 44 43 44 44 44 44 44 44 44 44 45 45
39 39 40 41 41 41 42 42 41 42 43 43 44 45 45 46 47 47 46 45 45 44 45 45 44 44 45 46 46 46 45 44 44 45 44 44 44 44 45 46 46 47 47
38 39 40 41 42 42 42 42 42 42 42 43 44 45 45 45 46 47 47 47 47 47 45 44 45 45 46 46 46 45 44 44 45 46 46 46 46 46 47 47 48 48 48
38 38 39 40 41 42 43 43 43 42 43 43 44 44 45 45 46 46 47 47 47 47 47 47 46 46 46 47 47 46 45 44 45 46 47 47 47 47 48 49 50 49 49
37 38 39 39 40 40 41 42 43 43 43 43 44 45 45 45 46 47 47 48 48 47 47 47 48 48 48 48 48 48 46 46 46 46 47 48 48 48 49 49 50 50 50
37 37 38 38 39 39 40 41 42 43 43 44 44 45 45 45 46 47 48 48 48 49 48 48 48 48 49 49 49 49 49 48 48 48 48 48 49 49 49 49 50 50 50
36 37 37 37 38 38 39 40 41 42 43 43 44 44 45 45 46 47 48 49 49 49 50 49 48 47 48 48 48 49 49 49 49 49 48 48 49 49 49 49 49 50 50
36 36 36 37 37 37 38 38 39 40 41 41 42 43 44 44 45 46 47 48 49 49 50 50 49 48 48 48 48 48 48 49 49 49 49 49 49 49 49 48 49 49 48
35 35 35 36 36 36 37 37 38 38 39 39 40 41 42 43 43 43 45 46 48 49 49 49 49 48 48 48 48 48 48 48 48 48 48 48 49 49 49 48 47 46 46
34 35 35 34 35 35 35 35 36 36 37 37 38 39 40 41 41 42 43 44 45 46 46 47 47 47 47 47 47 47 47 47 48 48 47 47 47 47 46 45 44 43 43
32 33 33 33 33 33 33 33 34 34 35 35 36 37 37 38 39 39 40 41 42 42 43 44 45 45 45 45 45 45 45 45 45 46 45 45 44 44 44 43 42 41 41
30 30 30 31 31 31 32 32 32 33 33 33 34 35 35 35 36 36 36 37 38 39 40 40 42 42 42 41 41 41 41 41 41 41 41 41 41 41 41 41 40 39 39
Wind_Direction
256 256 256 256 256 256 256 256 257 258 259 259 261 261 260 262 261 260 260 262 263 264 264 263 262 262 262 262 262 263 263 264 265 267 269 270 270 270 270 271 272 272 273
256 256 255 256 256 257 257 257 257 257 258 259 260 261 261 261 263 262 262 262 262 263 263 262 261 261 261 261 261 262 263 264 265 267 269 271 270 272 271 272 272 273 274
255 255 256 256 257 257 258 258 257 257 257 257 259 260 260 262 262 263 263 262 263 262 263 262 261 261 262 262 262 262 262 263 265 266 268 271 270 271 271 272 272 273 273
256 256 257 257 258 257 257 257 257 257 257 258 258 259 260 262 262 262 262 263 263 262 262 261 261 262 262 262 263 264 264 264 266 266 268 269 270 272 271 272 272 273 273
256 257 256 257 256 256 256 256 256 257 258 258 258 259 260 261 261 261 262 263 263 262 261 260 260 261 261 262 263 263 264 265 267 267 268 270 272 273 273 273 272 272 273
258 259 258 256 256 255 256 256 256 257 258 258 258 259 260 261 261 262 261 261 262 262 261 260 260 260 261 262 262 263 264 266 268 268 271 271 272 273 274 275 274 273 273
258 259 258 257 256 256 256 256 256 257 257 258 258 258 259 261 261 261 260 260 262 263 263 261 260 260 261 263 265 266 265 266 267 268 270 271 273 274 275 275 275 274 275
258 257 256 255 257 257 257 257 257 257 258 259 259 260 260 261 261 261 262 261 262 263 264 264 261 261 262 264 265 267 266 266 266 267 269 271 272 273 274 275 275 276 276
258 258 258 256 256 257 257 257 258 258 258 259 260 261 261 261 261 262 263 263 264 264 265 263 262 261 262 263 265 266 267 268 267 267 269 270 271 272 273 274 275 275 276
258 257 256 256 256 256 257 257 258 258 257 258 259 260 261 262 262 262 262 263 264 264 264 264 264 263 263 264 265 266 267 268 268 268 268 269 270 271 273 274 275 276 277
259 257 256 256 256 256 256 257 258 257 258 258 258 259 261 261 262 262 262 263 264 265 265 264 263 262 262 263 265 266 267 268 269 268 268 270 270 270 272 273 275 276 277
258 258 257 256 256 257 257 258 258 258 258 258 258 259 260 260 261 262 262 262 264 265 265 264 263 262 262 263 264 265 266 268 269 267 267 270 270 270 271 273 275 276 276
258 258 257 256 257 257 259 259 259 259 259 259 259 259 260 260 260 261 261 262 263 264 264 264 263 263 264 265 265 266 267 268 267 266 266 268 269 270 272 273 275 275 276
257 257 257 257 257 258 259 259 259 259 259 259 259 259 259 259 259 259 260 261 262 262 263 263 264 263 263 264 265 266 267 267 267 266 267 268 269 270 272 274 275 275 276
257 257 257 257 257 257 259 259 260 259 259 260 260 260 260 259 259 259 259 261 262 262 262 263 263 264 264 265 266 267 268 268 268 268 268 270 270 271 272 274 275 276 277
257 257 257 258 258 258 259 259 260 260 260 260 261 261 261 260 259 258 259 259 260 262 262 262 263 264 265 265 267 268 269 268 269 269 269 269 270 271 273 274 275 276 277
258 258 259 259 259 258 258 258 259 260 260 261 261 261 260 260 259 258 258 259 260 261 262 262 264 264 265 266 267 268 267 268 269 270 270 272 272 272 274 275 276 277 277
260 260 261 261 261 260 259 258 259 260 261 262 262 261 261 260 259 258 258 259 260 260 261 262 264 265 265 267 268 267 267 269 270 270 271 272 272 273 274 275 276 277 278
260 261 262 262 261 261 261 260 260 261 262 263 263 263 262 261 259 258 258 259 259 259 261 263 264 265 266 268 268 269 268 270 271 271 272 273 273 274 275 276 277 277 278
261 262 263 263 262 262 262 262 261 262 263 264 264 263 263 262 261 260 259 258 258 259 261 262 264 265 266 267 268 269 269 270 272 273 274 274 274 274 274 276 277 278 279
262 263 263 264 264 263 264 264 263 264 265 265 265 265 265 264 262 262 260 259 259 260 260 262 264 265 266 266 267 269 269 271 272 274 275 274 273 274 275 276 277 278 279
264 264 265 266 266 266 266 266 266 266 266 266 266 266 265 263 262 262 262 261 260 260 261 263 264 265 266 266 267 269 271 272 273 274 274 273 273 274 275 276 277 278 278
265 266 268 268 268 267 267 267 267 267 266 266 266 267 266 264 263 263 263 262 262 262 262 262 264 265 265 265 267 270 271 272 273 274 273 274 274 274 274 276 277 278 279
266 266 267 267 267 267 267 268 267 267 267 267 267 267 267 265 263 263 263 263 263 263 263 263 263 265 265 265 267 269 271 272 273 274 273 274 274 274 274 275 276 277 278
267 266 265 266 267 267 268 268 267 267 268 268 268 269 268 266 265 265 265 265 265 264 263 264 264 266 267 267 267 269 270 271 273 273 273 273 273 274 273 274 275 276 277
267 266 266 267 267 268 268 269 268 268 269 269 270 270 269 268 266 267 267 266 266 265 266 265 266 267 267 267 268 269 270 271 272 272 272 273 273 273 273 273 275 275 277
Height
5775 5776 5778 5780 5781 5783 5784 5785 5786 5787 5788 5789 5790 5790 5791 5791 5792 5792 5793 5794 5794 5795 5795 5795 5796 5796 5796 5797 5797 5797 5797 5797 5797 5797 5797 5797 5797 5797 5796 5796 5795 5795 5794
5766 5767 5769 5771 5772 5774 5775 5777 5778 5779 5780 5781 5782 5783 5783 5784 5785 5785 5786 5786 5787 5787 5788 5788 5788 5789 5789 5790 5790 5790 5790 5791 5791 5790 5790 5790 5790 5789 5789 5788 5788 5788 5787
5756 5758 5759 5761 5763 5764 5766 5767 5768 5770 5771 5772 5774 5775 5776 5776 5776 5777 5778 5778 5779 5779 5780 5781 5781 5781 5782 5782 5783 5783 5783 5783 5783 5783 5783 5783 5782 5782 5781 5781 5780 5780 5779
5747 5748 5750 5752 5753 5755 5756 5758 5759 5760 5762 5763 5764 5765 5767 5767 5768 5769 5770 5770 5771 5771 5772 5773 5773 5774 5774 5775 5775 5775 5775 5775 5776 5776 5775 5775 5774 5774 5774 5773 5772 5772 5771
5737 5738 5740 5742 5743 5745 5746 5748 5749 5750 5752 5753 5754 5756 5757 5758 5759 5760 5761 5761 5762 5763 5763 5764 5765 5766 5766 5767 5767 5767 5767 5767 5767 5767 5767 5766 5766 5766 5765 5764 5764 5763 5762
5727 5728 5729 5731 5732 5734 5736 5737 5739 5741 5742 5743 5744 5745 5747 5748 5749 5751 5752 5752 5753 5754 5755 5755 5756 5757 5757 5758 5759 5759 5759 5759 5759 5758 5758 5758 5757 5757 5756 5756 5755 5754 5753
5716 5717 5719 5720 5722 5724 5725 5727 5729 5730 5732 5733 5734 5736 5737 5738 5740 5741 5742 5743 5744 5745 5746 5746 5747 5748 5748 5749 5750 5750 5750 5750 5750 5750 5749 5749 5748 5747 5747 5746 5745 5744 5743
5705 5706 5708 5710 5711 5713 5715 5716 5718 5720 5721 5722 5724 5725 5727 5729 5730 5731 5732 5733 5734 5735 5736 5737 5738 5738 5739 5739 5740 5741 5741 5741 5740 5740 5739 5739 5739 5738 5737 5737 5736 5735 5733
5695 5696 5697 5699 5701 5702 5704 5706 5707 5709 5710 5712 5713 5715 5716 5718 5720 5721 5722 5723 5724 5725 5726 5726 5727 5728 5729 5729 5730 5731 5731 5731 5730 5730 5730 5729 5729 5728 5728 5727 5726 5725 5723
5684 5686 5687 5689 5690 5692 5694 5695 5696 5698 5699 5701 5703 5704 5706 5707 5709 5711 5712 5713 5713 5714 5715 5716 5716 5717 5718 5719 5720 5720 5720 5720 5720 5720 5719 5719 5719 5718 5717 5717 5715 5714 5713
5674 5675 5677 5678 5680 5682 5683 5684 5685 5687 5688 5690 5692 5693 5694 5696 5697 5699 5701 5702 5703 5703 5704 5705 5705 5706 5707 5708 5709 5709 5709 5709 5709 5709 5709 5708 5708 5707 5707 5706 5705 5704 5702
5663 5664 5666 5667 5669 5670 5672 5673 5675 5676 5677 5679 5681 5682 5683 5685 5686 5687 5689 5691 5692 5692 5693 5693 5694 5695 5696 5697 5697 5698 5698 5698 5698 5698 5698 5697 5697 5696 5696 5695 5694 5693 5691
5652 5653 5655 5656 5658 5659 5661 5662 5664 5665 5667 5668 5670 5671 5672 5674 5675 5676 5678 5679 5680 5681 5682 5682 5683 5684 5685 5686 5686 5687 5687 5686 5686 5686 5686 5686 5686 5685 5685 5684 5683 5682 5680
5642 5643 5644 5646 5647 5649 5650 5651 5653 5654 5655 5657 5658 5660 5661 5662 5664 5665 5666 5668 5669 5670 5671 5672 5673 5673 5674 5675 5675 5675 5675 5675 5675 5675 5675 5675 5675 5674 5673 5673 5671 5670 5669
5632 5633 5634 5635 5636 5638 5639 5640 5641 5643 5644 5645 5647 5648 5649 5650 5652 5653 5655 5656 5658 5659 5661 5662 5662 5663 5663 5664 5664 5664 5664 5663 5663 5664 5664 5664 5663 5663 5662 5661 5660 5658 5657
5621 5622 5623 5624 5626 5626 5628 5629 5630 5631 5633 5634 5635 5636 5638 5639 5640 5641 5643 5644 5646 5647 5649 5650 5650 5651 5652 5652 5652 5652 5652 5652 5652 5652 5652 5652 5651 5651 5650 5649 5647 5646 5644
5610 5612 5613 5614 5615 5615 5616 5617 5619 5620 5621 5622 5624 5625 5626 5627 5628 5629 5631 5633 5634 5635 5637 5638 5638 5639 5640 5640 5640 5640 5640 5640 5641 5640 5640 5640 5639 5638 5637 5636 5634 5632 5630
5600 5601 5602 5603 5603 5604 5605 5606 5607 5608 5609 5610 5611 5612 5613 5614 5615 5617 5619 5620 5622 5623 5625 5626 5626 5627 5627 5628 5628 5628 5628 5628 5628 5628 5628 5627 5626 5625 5624 5622 5621 5619 5617
5590 5591 5591 5592 5592 5593 5593 5594 5595 5596 5597 5598 5599 5600 5601 5601 5603 5604 5606 5607 5609 5610 5611 5613 5614 5614 5615 5615 5615 5616 5616 5616 5615 5615 5614 5614 5613 5611 5610 5608 5607 5605 5603
5579 5580 5580 5581 5581 5582 5582 5582 5583 5584 5585 5586 5586 5587 5588 5588 5590 5591 5592 5594 5595 5597 5598 5599 5600 5601 5602 5602 5602 5602 5603 5603 5603 5602 5601 5600 5599 5598 5596 5595 5593 5591 5589
5569 5569 5569 5570 5570 5570 5571 5571 5572 5572 5573 5574 5574 5575 5575 5576 5576 5577 5578 5580 5581 5583 5584 5585 5586 5587 5588 5588 5589 5589 5589 5589 5589 5588 5587 5587 5586 5584 5583 5581 5579 5577 5575
5558 5558 5559 5559 5559 5559 5560 5560 5560 5561 5561 5561 5562 5562 5563 5563 5564 5564 5565 5566 5567 5569 5570 5572 5573 5574 5574 5575 5575 5575 5575 5576 5576 5576 5574 5572 5571 5570 5568 5567 5565 5563 5561
5547 5548 5548 5548 5549 5549 5549 5549 5549 5549 5549 5550 5550 5550 5550 5551 5551 5551 5552 5553 5554 5555 5556 5558 5559 5560 5561 5562 5562 5562 5562 5561 5561 5560 5559 5558 5557 5556 5554 5553 5551 5549 5547
5537 5537 5538 5538 5538 5538 5538 5538 5538 5538 5539 5538 5538 5538 5538 5538 5539 5539 5539 5540 5541 5542 5543 5545 5546 5547 5547 5547 5548 5548 5547 5547 5547 5546 5545 5544 5543 5542 5541 5539 5538 5536 5535
5527 5528 5528 5528 5528 5528 5528 5528 5528 5528 5528 5528 5527 5527 5527 5527 5527 5527 5528 5528 5529 5530 5530 5531 5532 5533 5533 5534 5534 5533 5534 5534 5534 5533 5532 5531 5530 5528 5527 5527 5525 5524 5522
5518 5518 5519 5519 5519 5519 5519 5518 5518 5518 5518 5518 5517 5517 5516 5516 5516 5516 5516 5516 5517 5517 5518 5519 5519 5520 5521 5521 5521 5521 5521 5521 5520 5520 5519 5518 5517 5516 5515 5514 5513 5512 5510